◎C/2004 EW38 = 2009 S4 (Catalina-LINEAR)の連結軌道です

 IAUC 9077にあるとおり,スカッチは,2009年9月21日にこの彗星を検出し,
9月23日と28日にこれを確認しました.検出当時,彗星は,恒星状で検出光度は
21等級でした.検出位置の予報軌道(NK 1226 (= HICQ 2009/2010))からのずれ
は,赤経方向に−71",赤緯方向に−30"で,近日点通過時刻の補正値にして,
T=+0.096日でした.
 ドイツのメイヤーは,IAUC 9077に公表された連結軌道から,1997年にハレア
カラで行なわれていた1夜の観測群中にこの彗星の姿を見つけました.彗星は,
そのとき,恒星状で18等級でした.下の残差表のとおり,氏は,パロマーのプレ
ート上,1989年の予報位置近くに別のイメージを見つけていますが,この天体は,
連結軌道からのモーションと一致しないようです.なお,1997年の近日点通過は
T=1997年1月30日でした.

    P/2004 EW38 = 2009 S4 (Catalina-LINEAR)
Epoch 2010 Sept. 1.0 TT = JDT 2455440.5  
T 2010 Sept. 3.69877 TT                                 Nakano
q   1.7948022            (2000.0)            P               Q
n   0.14491427     Peri.   90.13424     -0.76129824     -0.64255240
a   3.5897314      Node    49.88421     +0.54049089     -0.70290711
e   0.5000177      Incl.    6.52468     +0.35818234     -0.30503771
P   6.80
From 87 observations 1997-2009, mean residual 0".70.
   The delta-T correction for the prediction in NK 1226 was +0.096 day.
   The 1997 observations were found by Maik Meyer.
Residuals in seconds of arc 
1989/                     040322 704  0.6+  1.0-    040420 204  0.0   0.2-  
891108 261(11.2- 57.1+)   040322 704  0.3+  0.1-    040420 204  0.3-  0.1+  
891108 261(36.8- 24.4+)   040325 699  0.8-  0.4-    040422 704  0.2+  0.1+  
1997/                     040325 699 (2.6-  0.4+)   040422 704  1.5+  0.9+  
970115 566 (2.8-  0.4+)   040325 699  0.2+  0.6+    040422 704  0.2-  0.4+  
970115 566  1.3-  1.4-    040325 699  0.5-  1.0-    040422 704  0.9+  0.8-  
970115 566  0.2-  0.3+    040409 E12  0.0   1.3+    040423 213  0.7+  0.5+  
970115 566  0.3-  1.0-    040409 E12  0.3+  1.1+    040424 170  0.7-  0.5-  
970115 566  1.0+  0.5+    040409 E12  0.2-  0.4+    040424 170  0.0   1.0-  
970115 566  0.2-  0.3-    040409 E12  0.5+  1.0+    040424 170  0.2-  0.9-  
2003/                     040414 691  0.2-  0.2-    040425 372  0.1-  0.5-  
031228 704  0.8+  1.6+    040414 691  0.2-  0.1-    040512 699 (0.9-  2.2+) 
031228 704  0.6+  1.0+    040414 696  0.2+  0.2-    040512 699  1.3-  0.8-  
031228 704  0.2+  0.4+    040414 696  0.1-  0.3-    040512 699  1.9-  0.7+  
031228 704  0.8+  0.6+    040414 691  0.0   0.1-    040512 699  0.2-  0.5-  
2004/                     040416 785  1.8+  0.1-    040514 360  0.3+  0.1+  
040123 704  1.4+  0.4-    040416 704  0.4+  0.5+    040514 360  1.0+  0.3-  
040123 704  0.2-  0.2+    040416 704  0.8+  0.5+    040514 360  0.4-  0.2+  
040123 704  0.2+  1.0+    040416 785  1.8-  1.6+    040519 691  0.0   0.2+  
040123 704  1.2+  0.6-    040416 704  0.3+  0.3-    040519 691  0.1+  0.1+  
040123 699  0.7-  0.3+    040416 704  0.8+  0.4+    040519 691  0.1+  0.2+  
040123 699  0.9-  0.0     040416 704  0.0   0.5+    2009/                   
040123 699  0.1+  0.2+    040417 699  0.0   1.1-    090921 291  0.4-  0.4+  
040123 699  1.4-  0.2+    040417 699  1.8-  0.5-    090921 291  0.2-  0.2+  
040314 703  0.2-  0.2-    040417 699  0.6-  1.9+    090921 291  0.1+  0.2+  
040314 703  0.6-  1.9-    040417 699  0.1+  0.3+    090923 291  0.3-  0.3+  
040314 703  0.0   0.0     040420 703  1.4+  0.8-    090923 291  0.6-  1.2+  
040314 703  0.4-  0.1+    040420 703  0.4-  0.9+    090923 291  0.2+  1.2+  
040316 704  0.7+  1.1-    040420 703  0.4-  0.3+    090928 291  0.3-  0.1-  
040316 704  0.1-  0.3+    040420 703  0.5-  1.5+    090928 291  0.1-  0.1+  
040316 704  0.2+  0.5+    040420 360  0.1-  0.2-    090928 291  0.0   0.2-  
040322 704  0.5+  0.6-    040420 360  0.0   0.4-                            
040322 704  0.3+  0.1-    040420 360  0.3+  0.3-                            
NAKANO
         **** Don't distribute anyone except personal use only ****
           (C) Copyright 2009 Orbit.Astro.Assoc./ComputingSection
write mail from CFAD0::NAKANO on 2009-09-30 04:22:43(JST).
 

戻ります。